(189767) = 2002 CH3

Discovered at Palomar on 2002-02-03 by NEAT.

Orbit

Orbit type: Main Belt

Note: WebGL enabled browser required.

epoch2023-09-13.0
epoch JD2460200.5
perihelion date2021-09-22.59437
perihelion JD2459480.09437
argument of perihelion (°)226.68713
ascending node (°)1.32238
inclination (°)8.25775
eccentricity0.1358366
perihelion distance (AU)2.4208097
Tisserand w.r.t. Jupiter3.3
ΔV w.r.t. Earth (km/sec)10.1
semimajor axis (AU)2.8013334
mean anomaly (°)151.43761
mean daily motion (°/day)0.21021160
aphelion distance (AU)3.182
period (years)4.69
P-vector [x]-0.66918130
P-vector [y]-0.63343453
P-vector [z]-0.38853197
Q-vector [x]0.74309179
Q-vector [y]-0.56808739
Q-vector [z]-0.35368250
absolute magnitude15.6
phase slope0.15
uncertainty0
referenceMPEC 2023-X62
observations used713
oppositions16
arc length (days)11188
first opposition used1993
last opposition used2023
residual rms (arc-secs)0.71
perturbers coarse indicatorM-v
perturbers precise indicator003Ek
first observation date used1993-04-17.0
last observation date used2023-12-04.0
computer nameMPCLINUX
JD of orbit computation2456966.907824
perihelion JD uncertainty (days)1.6555E-04
argument of perihelion uncertainty (°)5.4340E-05
ascending node uncertainty (°)3.9520E-05
inclination uncertainty (°)1.1035E-05
eccentricity uncertainty 8.6203E-08
perihelion distance uncertainty (AU)2.2074E-07
Minimum Orbit Intersection Distances (in AU)
for orbit epoch: 2460200.5, reference: E2023-X62
Mercury1.96639
Venus1.70606
Earth1.41977
Mars0.84344
Jupiter1.83708
Saturn5.99208
Uranus15.7755
Neptune26.6922

Observations

727 total observations over interval: 1993 04 17.43889 – 2023 12 04.234842
These data are available for download (format description).

Date (UT) J2000 RA J2000 Dec Magn Location Ref
1993 04 17.43889 11 49 31.16 -00 47 21.2 19.1   413 – Siding Spring Observatory MPS 175692
2002 02 03.46411 09 58 41.37 +21 18 51.6 19.6   644 – Palomar Mountain/NEAT MPS 50084
2002 02 03.47456 09 58 40.79 +21 18 53.5 20.1   644 – Palomar Mountain/NEAT MPS 50084
2002 02 03.48498 09 58 40.21 +21 18 56.0 19.8   644 – Palomar Mountain/NEAT MPS 50084
2002 02 04.46161 09 57 46.30 +21 22 06.7 19.6   644 – Palomar Mountain/NEAT MPS 50084
2002 02 04.47204 09 57 45.68 +21 22 08.5 20.0   644 – Palomar Mountain/NEAT MPS 50084
2002 02 04.48356 09 57 45.02 +21 22 10.3 20.1   644 – Palomar Mountain/NEAT MPS 50084
2002 02 05.27010 09 57 01.33 +21 24 42.4 19.1 R 699 – Lowell Observatory-LONEOS MPS 55339
2002 02 05.29538 09 56 59.97 +21 24 46.9   699 – Lowell Observatory-LONEOS MPS 55339
2002 02 05.32070 09 56 58.53 +21 24 52.8   699 – Lowell Observatory-LONEOS MPS 55339
2002 02 05.34579 09 56 56.98 +21 24 56.3   699 – Lowell Observatory-LONEOS MPS 55339
2002 02 07.24436 09 55 09.14 +21 30 52.4 19.0   644 – Palomar Mountain/NEAT MPS 50084
2002 02 07.30771 09 55 05.36 +21 31 04.2 19.2   644 – Palomar Mountain/NEAT MPS 50084
2002 02 07.37030 09 55 01.67 +21 31 15.8 19.2   644 – Palomar Mountain/NEAT MPS 50084
2002 02 08.31513 09 54 07.09 +21 34 08.0 19.4   704 – Lincoln Laboratory ETS, New Mexico MPS 50084
2002 02 08.32946 09 54 06.21 +21 34 11.0 20.0   704 – Lincoln Laboratory ETS, New Mexico MPS 50084
2002 02 08.34381 09 54 05.32 +21 34 13.6 20.3   704 – Lincoln Laboratory ETS, New Mexico MPS 50084
2002 02 08.37273 09 54 03.64 +21 34 16.5 19.2   704 – Lincoln Laboratory ETS, New Mexico MPS 50084
2002 02 12.31979 09 50 11.26 +21 45 26.7 19.3   704 – Lincoln Laboratory ETS, New Mexico MPS 50084
2002 02 12.33461 09 50 10.35 +21 45 28.0 19.3   704 – Lincoln Laboratory ETS, New Mexico MPS 50084
2002 02 12.34959 09 50 09.47 +21 45 29.3 19.5   704 – Lincoln Laboratory ETS, New Mexico MPS 50084
2002 02 12.36403 09 50 08.56 +21 45 33.2 19.7   704 – Lincoln Laboratory ETS, New Mexico MPS 50084
2002 02 12.37880 09 50 07.65 +21 45 35.2 19.2   704 – Lincoln Laboratory ETS, New Mexico MPS 50084
2002 02 23.25296 09 39 24.59 +22 07 26.8 19.4   644 – Palomar Mountain/NEAT MPS 55339
2002 02 23.27521 09 39 23.27 +22 07 28.7 19.3   644 – Palomar Mountain/NEAT MPS 55339
2002 02 23.29639 09 39 22.01 +22 07 30.2 19.0   644 – Palomar Mountain/NEAT MPS 55339
2002 03 06.24038 09 29 42.98 +22 13 00.7 20.1   704 – Lincoln Laboratory ETS, New Mexico MPS 55339
2002 03 06.25364 09 29 42.32 +22 13 01.3 19.8   704 – Lincoln Laboratory ETS, New Mexico MPS 55339
2002 03 06.26689 09 29 41.67 +22 13 01.2 19.8   704 – Lincoln Laboratory ETS, New Mexico MPS 55339
2002 03 06.29362 09 29 40.38 +22 13 01.0 19.9   704 – Lincoln Laboratory ETS, New Mexico MPS 55339
2002 03 11.18779 09 26 04.51 +22 09 38.1 19.7   644 – Palomar Mountain/NEAT MPS 52591
2002 03 11.20875 09 26 03.63 +22 09 36.9 20.1   644 – Palomar Mountain/NEAT MPS 52591
2002 03 11.22968 09 26 02.73 +22 09 35.7 20.0   644 – Palomar Mountain/NEAT MPS 52591
2004 10 04.16881 00 38 28.77 +06 25 35.7 19.7 V 691 – Steward Observatory, Kitt Peak-Spacewatch MPS 117567
2004 10 04.19676 00 38 27.27 +06 25 30.4 19.7 V 691 – Steward Observatory, Kitt Peak-Spacewatch MPS 117567
2004 10 04.22423 00 38 25.80 +06 25 25.1 19.7 V 691 – Steward Observatory, Kitt Peak-Spacewatch MPS 117567
2004 10 05.22649 00 37 33.15 +06 22 08.0 19.1 R 699 – Lowell Observatory-LONEOS MPS 178305
2004 10 05.24675 00 37 32.13 +06 22 06.2   699 – Lowell Observatory-LONEOS MPS 178305
2004 10 05.26704 00 37 30.90 +06 22 01.6   699 – Lowell Observatory-LONEOS MPS 178305
2004 10 05.28732 00 37 29.85 +06 21 58.6   699 – Lowell Observatory-LONEOS MPS 178305
2004 10 07.28075 00 35 45.78 +06 15 24.8 20.0   704 – Lincoln Laboratory ETS, New Mexico MPS 117567
2004 10 07.29218 00 35 45.32 +06 15 20.7 20.7   704 – Lincoln Laboratory ETS, New Mexico MPS 117567
2004 10 07.30319 00 35 44.54 +06 15 21.0 20.5   704 – Lincoln Laboratory ETS, New Mexico MPS 117567
2004 10 07.31429 00 35 43.99 +06 15 19.0 20.4   704 – Lincoln Laboratory ETS, New Mexico MPS 117567
2004 10 07.32545 00 35 43.38 +06 15 15.9 19.8   704 – Lincoln Laboratory ETS, New Mexico MPS 117567
2004 10 08.21091 00 34 57.64 +06 12 22.0 19.2 R 699 – Lowell Observatory-LONEOS MPS 117567
2004 10 08.23116 00 34 56.53 +06 12 17.1   699 – Lowell Observatory-LONEOS MPS 117567
2004 10 08.25145 00 34 55.45 +06 12 13.5   699 – Lowell Observatory-LONEOS MPS 117567
2004 10 08.27171 00 34 54.49 +06 12 09.6   699 – Lowell Observatory-LONEOS MPS 117567
2004 10 09.21003 00 34 05.87 +06 09 04.7 20.4   704 – Lincoln Laboratory ETS, New Mexico MPS 178305
2004 10 09.23146 00 34 04.88 +06 09 01.3 20.2   704 – Lincoln Laboratory ETS, New Mexico MPS 178305
2004 10 09.24217 00 34 04.37 +06 08 58.5 20.7   704 – Lincoln Laboratory ETS, New Mexico MPS 178305
2004 10 14.14909 00 29 57.13 +05 52 58.7 20.1 V 691 – Steward Observatory, Kitt Peak-Spacewatch MPS 117567
2004 10 14.18027 00 29 55.56 +05 52 52.8 20.2 V 691 – Steward Observatory, Kitt Peak-Spacewatch MPS 117567
2004 10 14.21170 00 29 53.96 +05 52 46.6 20.3 V 691 – Steward Observatory, Kitt Peak-Spacewatch MPS 117567
2007 02 23.33471 12 17 38.76 +00 12 13.7 19.3   704 – Lincoln Laboratory ETS, New Mexico MPS 201456
2007 02 23.34706 12 17 38.39 +00 12 14.3 20.0   704 – Lincoln Laboratory ETS, New Mexico MPS 201456
2007 02 23.37031 12 17 37.40 +00 12 15.9 19.9   704 – Lincoln Laboratory ETS, New Mexico MPS 201456
2007 02 23.38192 12 17 36.97 +00 12 15.1 19.3   704 – Lincoln Laboratory ETS, New Mexico MPS 201456
2007 02 24.35366 12 17 02.78 +00 12 56.7 19.2   704 – Lincoln Laboratory ETS, New Mexico MPS 201456
2007 02 24.36549 12 17 02.35 +00 12 57.0 19.9   704 – Lincoln Laboratory ETS, New Mexico MPS 201456
2007 02 24.37732 12 17 01.92 +00 12 57.0 19.6   704 – Lincoln Laboratory ETS, New Mexico MPS 201456
2007 02 24.38927 12 17 01.39 +00 12 57.2 19.6   704 – Lincoln Laboratory ETS, New Mexico MPS 201456
2007 02 24.40112 12 17 00.95 +00 12 58.1 19.6   704 – Lincoln Laboratory ETS, New Mexico MPS 201456
2007 02 25.32514 12 16 27.21 +00 13 43.1 19.0   704 – Lincoln Laboratory ETS, New Mexico MPS 201456
2007 02 25.33675 12 16 26.85 +00 13 44.0 19.5   704 – Lincoln Laboratory ETS, New Mexico MPS 201456
2007 02 25.34826 12 16 26.32 +00 13 44.2 19.4   704 – Lincoln Laboratory ETS, New Mexico MPS 201456
2007 02 25.35979 12 16 25.92 +00 13 45.1 19.6   704 – Lincoln Laboratory ETS, New Mexico MPS 201456
2007 02 25.37132 12 16 25.46 +00 13 45.8 19.4   704 – Lincoln Laboratory ETS, New Mexico MPS 201456
2007 03 09.45259 12 07 24.88 +00 30 25.9 18.8 V G96 – Mt. Lemmon Survey MPS 202306
2007 03 09.45919 12 07 24.56 +00 30 26.7 18.6 V G96 – Mt. Lemmon Survey MPS 202306
2007 03 09.46568 12 07 24.20 +00 30 27.3 18.8 V G96 – Mt. Lemmon Survey MPS 202306
2007 03 09.47221 12 07 23.84 +00 30 28.1 18.8 V G96 – Mt. Lemmon Survey MPS 202306
2007 03 14.31837 12 03 08.34 +00 39 50.0 19.0   704 – Lincoln Laboratory ETS, New Mexico MPS 202945
2007 03 14.32911 12 03 07.74 +00 39 52.1 19.1   704 – Lincoln Laboratory ETS, New Mexico MPS 202945
2007 03 14.33983 12 03 07.08 +00 39 52.8 19.5   704 – Lincoln Laboratory ETS, New Mexico MPS 202945
2007 03 14.35116 12 03 06.47 +00 39 53.9 18.9   704 – Lincoln Laboratory ETS, New Mexico MPS 202945
2007 03 14.36220 12 03 05.82 +00 39 55.8 19.2   704 – Lincoln Laboratory ETS, New Mexico MPS 202945
2007 03 15.27387 12 02 16.22 +00 41 47.2 18.5 C 704 – Lincoln Laboratory ETS, New Mexico MPS 289783
2007 03 15.29579 12 02 15.03 +00 41 49.5 18.7 C 704 – Lincoln Laboratory ETS, New Mexico MPS 289783
2007 03 15.31796 12 02 13.79 +00 41 51.6 18.4 C 704 – Lincoln Laboratory ETS, New Mexico MPS 289783
2007 03 16.30841 12 01 19.27 +00 43 55.7 18.5 V G96 – Mt. Lemmon Survey MPS 204518
2007 03 16.31488 12 01 18.87 +00 43 56.5 18.5 V G96 – Mt. Lemmon Survey MPS 204518
2007 03 16.32140 12 01 18.51 +00 43 57.3 18.5 V G96 – Mt. Lemmon Survey MPS 204518
2007 03 16.32788 12 01 18.15 +00 43 58.1 18.5 V G96 – Mt. Lemmon Survey MPS 204518
2007 03 17.25557 12 00 26.87 +00 45 54.3 18.2 R 699 – Lowell Observatory-LONEOS MPS 204518
2007 03 17.27747 12 00 25.62 +00 45 57.1   699 – Lowell Observatory-LONEOS MPS 204518
